Regional Weather Roundup
Issued by NWS

Home | Current Version | Previous Version | Graphics & Text | Print | Product List | Glossary Off
Versions: 1 2 3 4 5 6 7 8 9 10 11 12 13 14 15 16 17 18 19 20 21 22 23 24 25 26 27 28 29 30 31 32 33 34 35 36 37 38 39 40 41 42 43 44 45 46 47 48 49 50

000
ASUS43 KMKX 172000
RWRWI

WISCONSIN REGIONAL WEATHER ROUNDUP
NATIONAL WEATHER SERVICE MILWAUKEE/SULLIVAN WI
200 PM CST TUE JAN 17 2017

NOTE: "FAIR" INDICATES FEW OR NO CLOUDS BELOW 12,000 FEET WITH NO
SIGNIFICANT WEATHER AND/OR OBSTRUCTIONS TO VISIBILITY.

WIZ001-002-006>008-014>016-023>028-172100-
NORTHWEST WISCONSIN

CITY           SKY/WX    TMP DP  RH WIND       PRES   REMARKS
SUPERIOR ARPT    N/A    N/A N/A N/A NW3       29.94S
ASHLAND        SUNNY     37  29  72 CALM      29.91F
HAYWARD        SUNNY     44  22  41 VRB3      29.89S
SIREN          SUNNY     38  26  61 NW8       29.93S WCI  32
CUMBERLAND     SUNNY     34  30  86 NW3       29.90F
RICE LAKE      CLOUDY    36  31  82 CALM      29.91F
CHETEK         NOT AVBL
LADYSMITH      MOSUNNY   38  32  81 NW6       29.90F WCI  33
EAU CLAIRE     NOT AVBL
MENOMONIE      CLOUDY    36  36 100 W5        29.91S WCI  32
NEW RICHMOND   MOSUNNY   34  29  83 NW8       29.95R WCI  27
OSCEOLA        SUNNY     36  28  74 NW6       29.97S WCI  31
$$

WIZ003>005-009-010-017-018-172100-
NORTH CENTRAL WISCONSIN

CITY           SKY/WX    TMP DP  RH WIND       PRES   REMARKS
MANITOWISH WTR NOT AVBL
ARBOR VITAE    CLOUDY    41  31  67 N7        29.85S
WOODRUFF       CLOUDY    41  31  67 N7        29.85S
RHINELANDER    CLOUDY    40  33  76 CALM      29.85S
EAGLE RIVER    CLOUDY    39  29  68 N6        29.84S WCI  34
LAND O LAKES   CLOUDY    40  26  58 N5        29.86F
PHILLIPS       SUNNY     40  33  76 NE3       29.86F
TOMAHAWK       CLOUDY    38  32  77 N3        29.86S
MEDFORD        CLOUDY    35  33  89 N5        29.86R WCI  31
MERRILL        CLOUDY    37  35  94 N3          N/A
$$

WIZ029-030-035-036-043>047-172100-
CENTRAL WISCONSIN

CITY           SKY/WX    TMP DP  RH WIND       PRES   REMARKS
WAUSAU         CLOUDY    36  33  89 N3        29.84R
MOSINEE        CLOUDY    34  34 100 N3        29.86R FOG
MARSHFIELD     LGT RAIN  35  32  88 N5        29.85R FOG     WCI  31
STEVENS POINT  CLOUDY    32  32 100 CALM      29.86R FOG
WAUPACA        CLOUDY    36  34  92 CALM      29.85S FOG
WAUTOMA        CLOUDY    35  34  96 N6        29.86R WCI  30
WISC RAPIDS    CLOUDY    35  34  96 N3        29.87R
CAMP DOUGLAS   NOT AVBL
$$

WIZ011>013-019>022-031-037>040-048>050-172100-
NORTHEAST WISCONSIN

CITY           SKY/WX    TMP DP  RH WIND       PRES   REMARKS
ANTIGO         FOG       33  33 100 N3        29.84R VSB 1
SHAWANO        FOG       35  33  93 N3        29.85S VSB 1
OCONTO         CLOUDY    34  33  96 N7        29.84S WCI  27
STURGEON BAY   CLOUDY    35  34  96 N6        29.83R FOG     WCI  30
GREEN BAY      CLOUDY    36  35  96 N6        29.83S FOG     WCI  31
MANITOWOC      NOT AVBL
APPLETON         N/A     34  34 100 N6        29.82S FOG     WCI  29
CLINTONVILLE   FOG       34  32  93 N5        29.85R VSB 1/2 WCI  30
OSHKOSH        LGT RAIN  34  32  92 NW6       29.84R FOG     WCI  29
$$

WIZ032>034-041-042-053>061-172100-
SOUTHWEST WISCONSIN

CITY           SKY/WX    TMP DP  RH WIND       PRES   REMARKS
LA CROSSE      LGT SNOW  35  32  88 NW7       29.90S FOG     WCI  29
SPARTA         DRIZZLE   33  33 100 W5        29.89S WCI  29
VIROQUA        CLOUDY    33  33 100 NW6       29.86S WCI  27
BOSCOBEL       CLOUDY    36  33  89 W3        29.89S FOG
PRAIRIE DU CHI CLOUDY    35  34  96 CALM      29.90R FOG
PLATTEVILLE    CLOUDY    34  34 100 W10       29.88S WCI  26
$$

WIZ056-057-062-063-064-067-068-172100-
SOUTH CENTRAL WISCONSIN

CITY           SKY/WX    TMP DP  RH WIND       PRES   REMARKS
REEDSBURG      CLOUDY    33  33 100 NW5       29.86S WCI  29
BARABOO/DELLS  CLOUDY    33  33  99 W5        29.85R FOG     WCI  29
LONE ROCK      NOT AVBL
MINERAL POINT  FOG       34  34 100 W10       29.85S VSB 1/2 WCI  26
MADISON        CLOUDY    34  33  96 NW5       29.86R FOG     WCI  30
MIDDLETON      CLOUDY    36  36 100 NW7       29.85S WCI  30
WATERTOWN      CLOUDY    34  34 100 NW5       29.83S FOG     WCI  30
MONROE         CLOUDY    34  34 100 W13       29.85S FOG     WCI  25
JANESVILLE     CLOUDY    36  36 100 W9        29.85S FOG     WCI  29
$$

WIZ051-052-058>065-066-070>072-172100-
SOUTHEAST WISCONSIN

CITY           SKY/WX    TMP DP  RH WIND       PRES   REMARKS
MILWAUKEE      CLOUDY    40  35  83 W8        29.82S WCI  34
WAUKESHA       CLOUDY    34  34 100 W9        29.83S FOG     WCI  26
MILWAUKEE/TIMM CLOUDY    37  34  87 W7        29.83S WCI  32
RACINE         CLOUDY    38  36  92 W6        29.85R WCI  33
KENOSHA        CLOUDY    38  35  89 W7        29.85R FOG     WCI  33
FOND DU LAC    FOG       34  32  92 NW6       29.83F VSB 3/4 WCI  29
SHEBOYGAN      CLOUDY    34  33  96 W8        29.82S FOG     WCI  27
WEST BEND      FOG       34  34 100 NW6       29.82S VSB 1   WCI  29
JUNEAU         FOG       33  32  99 NW5       29.84R VSB 3/4 WCI  28
$$

LSZ147-162-172100-
LAKE SUPERIOR

STATION/POSITION TIME  TEMP    WIND        PRES    WAVE
                       AIR SEA DIR/SP/G            HT/PER
                 (UTC) (F)     (DEG/KT/KT) (MB)    (FT/S)
DEVILS ISLAND    1900   33     340/  3/  4 1014.0F
PORT WING        1940   33     280/  2/  7 1013.9S
SAXON HARBOR     1940   37      50/  2/  2 1013.2F
$$

LMZ867-665-643>646-172100-
LAKE MICHIGAN

STATION/POSITION TIME  TEMP    WIND        PRES    WAVE
                       AIR SEA DIR/SP/G            HT/PER
                 (UTC) (F)     (DEG/KT/KT) (MB)    (FT/S)
NORTHPORT PIER   1940   34      40/ 10/ 14 1010.5S
SISTER BAY       1920   35      70/  6/ 11   N/A
KEWAUNEE LAKESHO 1930   36     350/  4/  6 1009.0F
SHEBOYGAN LAKESH 1900   35     280/  7/  8 1010.0F
PORT WASHINGTON  1940   37     300/  4/  7 1010.8S
MILWAUKEE LAKESH 1930   38     290/  8/  9   N/A
KENOSHA   LAKESH 1900   37     310/  7/ 11 1010.2
$$

TC  - TEMPERATURE IN CELSIUS
VSB - VISIBILITY IN STATUTE MILES
WCI - WIND CHILL INDEX
HX  - HEAT INDEX





USA.gov is the U.S. government's official web portal to all federal, state and local government web resources and services.